Regional Weather Roundup
Issued by NWS

Home | Current Version | Previous Version | Graphics & Text | Print | Product List | Glossary On
Versions: 1 2 3 4 5 6 7 8 9 10 11 12 13 14 15 16 17 18 19 20 21 22 23 24 25 26 27 28 29 30 31 32 33 34 35 36 37 38 39 40 41 42 43 44 45 46 47 48 49 50
000
ASUS43 KTOP 211459
RWRKS

WEATHER ROUNDUP FOR KANSAS
NATIONAL WEATHER SERVICE GOODLAND KS
900 AM CST SUN DEC 21 2014

NOTE:  "FAIR" INDICATES FEW OR NO CLOUDS BELOW 12,000 FEET WITH NO
SIGNIFICANT WEATHER AND/OR OBSTRUCTIONS TO VISIBILITY.

KSZ001>006-013>018-027>032-041>047-211600-
NORTHWEST KANSAS

CITY           SKY/WX    TMP DP  RH WIND       PRES   REMARKS
GOODLAND       CLEAR     31  27  85 W5        29.75F
HAYS           CLOUDY    39  32  75 S10       29.85S WCI  32
HILL CITY      FOG       34  33  96 S14       29.81F VSB 1/2 WCI  25
RUSSELL        CLOUDY    40  40 100 S12       29.84S FOG     WCI  33
$$

KSZ061>065-074>080-084>089-211600-
SOUTHWEST KANSAS

CITY           SKY/WX    TMP DP  RH WIND       PRES   REMARKS
DODGE CITY     CLOUDY    39  37  92 S12       29.84F FOG     WCI  32
ELKHART          N/A    N/A N/A N/A MISG        N/A
GARDEN CITY    CLOUDY    37  36  96 S12       29.80F FOG     WCI  29
GREAT BEND     CLOUDY    39  36  87 S16       29.87F WCI  30
LIBERAL        CLOUDY    37  34  87 S8        29.83F
$$

KSZ066>073-081>083-090>101-211600-
SOUTHEAST KANSAS

CITY           SKY/WX    TMP DP  RH WIND       PRES   REMARKS
CHANUTE        CLOUDY    41  39  93 S8        30.05S
COFFEYVILLE    CLOUDY    43  40  89 S10       30.05F
HUTCHINSON     CLOUDY    40  38  93 S13       29.93F FOG     WCI  32
MEDICINE LODGE   N/A     39  39 100 S8        29.91F
NEWTON         CLOUDY    39  34  81 S15       29.95F WCI  31
PARSONS        CLOUDY    42  40  92 S7        30.06F
WICHITA INTL   CLOUDY    41  37  86 S13       29.95F
WICHITA JABRA  CLOUDY    40  37  89 S12       29.95F WCI  33
WINFIELD       CLOUDY    42  38  85 S13       29.99F
$$

KSZ007>012-019>026-033>040-048>060-102>105-211600-
NORTHEAST KANSAS

CITY           SKY/WX    TMP DP  RH WIND       PRES   REMARKS
CONCORDIA      CLOUDY    38  38 100 S15G22    29.87F FOG     WCI  29
EMPORIA        CLOUDY    38  38 100 S13       29.98F FOG     WCI  30
LAWRENCE       CLOUDY    39  37  92 S9        30.01F FOG
MANHATTAN      CLOUDY    41  38  89 S9        29.94F
OLATHE IND     CLOUDY    38  38 100 S13       30.02F FOG     WCI  30
OLATHE EXE     CLOUDY    39  39 100 S10       30.01F FOG     WCI  32
SALINA         CLOUDY    41  38  89 S12       29.91F
TOPEKA BILLARD CLOUDY   N/A N/A N/A S10       30.00S
TOPEKA FORBES  CLOUDY    41  37  86 S12       29.98F FOG
$$



USA.gov is the U.S. government's official web portal to all federal, state and local government web resources and services.